Year,Month,Day,Hour,Minute,Value (Times are PST for temperature in C)
2010,07,16,00,00,14.80
2010,07,16,00,01,14.80
2010,07,16,00,02,14.80
2010,07,16,00,03,14.80
2010,07,16,00,04,14.70
2010,07,16,00,05,14.70
2010,07,16,00,06,14.70
2010,07,16,00,07,14.70
2010,07,16,00,08,14.70
2010,07,16,00,09,14.60
2010,07,16,00,10,14.60
2010,07,16,00,11,14.60
2010,07,16,00,12,14.60
2010,07,16,00,13,14.50
2010,07,16,00,14,14.50
2010,07,16,00,15,14.50
2010,07,16,00,16,14.40
2010,07,16,00,17,14.40
2010,07,16,00,18,14.40
2010,07,16,00,19,14.40
2010,07,16,00,20,14.40
2010,07,16,00,21,14.40
2010,07,16,00,22,14.40
2010,07,16,00,23,14.40
2010,07,16,00,24,14.40
2010,07,16,00,25,14.40
2010,07,16,00,26,14.30
2010,07,16,00,27,14.30
2010,07,16,00,28,14.30
2010,07,16,00,29,14.30
2010,07,16,00,30,14.30
2010,07,16,00,31,14.20
2010,07,16,00,32,14.20
2010,07,16,00,33,14.20
2010,07,16,00,34,14.20
2010,07,16,00,35,14.20
2010,07,16,00,36,14.20
2010,07,16,00,37,14.20
2010,07,16,00,38,14.20
2010,07,16,00,39,14.20
2010,07,16,00,40,14.20
2010,07,16,00,41,14.20
2010,07,16,00,42,14.20
2010,07,16,00,43,14.20
2010,07,16,00,44,14.20
2010,07,16,00,45,14.20
2010,07,16,00,46,14.20
2010,07,16,00,47,14.20
2010,07,16,00,48,14.20
2010,07,16,00,49,14.20
2010,07,16,00,50,14.20
2010,07,16,00,51,14.20
2010,07,16,00,52,14.10
2010,07,16,00,53,14.10
2010,07,16,00,54,14.10
2010,07,16,00,55,14.20
2010,07,16,00,56,14.20
2010,07,16,00,57,14.20
2010,07,16,00,58,14.20
2010,07,16,00,59,14.20
2010,07,16,01,00,14.20
2010,07,16,01,01,14.20
2010,07,16,01,02,14.20
2010,07,16,01,03,14.10
2010,07,16,01,04,14.10
2010,07,16,01,05,14.00
2010,07,16,01,06,14.00
2010,07,16,01,07,13.90
2010,07,16,01,08,13.90
2010,07,16,01,09,13.90
2010,07,16,01,10,13.90
2010,07,16,01,11,13.90
2010,07,16,01,12,13.90
2010,07,16,01,13,13.80
2010,07,16,01,14,13.80
2010,07,16,01,15,13.80
2010,07,16,01,16,13.80
2010,07,16,01,17,13.80
2010,07,16,01,18,13.70
2010,07,16,01,19,13.70
2010,07,16,01,20,13.70
2010,07,16,01,21,13.70
2010,07,16,01,22,13.70
2010,07,16,01,23,13.70
2010,07,16,01,24,13.70
2010,07,16,01,25,13.70
2010,07,16,01,26,13.60
2010,07,16,01,27,13.60
2010,07,16,01,28,13.60
2010,07,16,01,29,13.50
2010,07,16,01,30,13.50
2010,07,16,01,31,13.50
2010,07,16,01,32,13.50
2010,07,16,01,33,13.40
2010,07,16,01,34,13.40
2010,07,16,01,35,13.40
2010,07,16,01,36,13.40
2010,07,16,01,37,13.30
2010,07,16,01,38,13.30
2010,07,16,01,39,13.30
2010,07,16,01,40,13.30
2010,07,16,01,41,13.30
2010,07,16,01,42,13.20
2010,07,16,01,43,13.20
2010,07,16,01,44,13.20
2010,07,16,01,45,13.10
2010,07,16,01,46,13.10
2010,07,16,01,47,13.10
2010,07,16,01,48,13.00
2010,07,16,01,49,13.00
2010,07,16,01,50,12.90
2010,07,16,01,51,12.90
2010,07,16,01,52,12.90
2010,07,16,01,53,12.80
2010,07,16,01,54,12.80
2010,07,16,01,55,12.80
2010,07,16,01,56,12.80
2010,07,16,01,57,12.80
2010,07,16,01,58,12.80
2010,07,16,01,59,12.80
2010,07,16,02,00,12.70
2010,07,16,02,01,12.70
2010,07,16,02,02,12.70
2010,07,16,02,03,12.70
2010,07,16,02,04,12.60
2010,07,16,02,05,12.60
2010,07,16,02,06,12.60
2010,07,16,02,07,12.60
2010,07,16,02,08,12.50
2010,07,16,02,09,12.50
2010,07,16,02,10,12.50
2010,07,16,02,11,12.50
2010,07,16,02,12,12.40
2010,07,16,02,13,12.40
2010,07,16,02,14,12.40
2010,07,16,02,15,12.30
2010,07,16,02,16,12.30
2010,07,16,02,17,12.30
2010,07,16,02,18,12.30
2010,07,16,02,19,12.30
2010,07,16,02,20,12.30
2010,07,16,02,21,12.30
2010,07,16,02,22,12.20
2010,07,16,02,23,12.20
2010,07,16,02,24,12.20
2010,07,16,02,25,12.20
2010,07,16,02,26,12.10
2010,07,16,02,27,12.10
2010,07,16,02,28,12.10
2010,07,16,02,29,12.10
2010,07,16,02,30,12.10
2010,07,16,02,31,12.00
2010,07,16,02,32,12.00
2010,07,16,02,33,12.00
2010,07,16,02,34,12.00
2010,07,16,02,35,12.00
2010,07,16,02,36,12.00
2010,07,16,02,37,12.00
2010,07,16,02,38,11.90
2010,07,16,02,39,11.90
2010,07,16,02,40,11.90
2010,07,16,02,41,11.90
2010,07,16,02,42,11.80
2010,07,16,02,43,11.80
2010,07,16,02,44,11.80
2010,07,16,02,45,11.80
2010,07,16,02,46,11.80
2010,07,16,02,47,11.80
2010,07,16,02,48,11.80
2010,07,16,02,49,11.80
2010,07,16,02,50,11.80
2010,07,16,02,51,11.80
2010,07,16,02,52,11.70
2010,07,16,02,53,11.70
2010,07,16,02,54,11.70
2010,07,16,02,55,11.70
2010,07,16,02,56,11.70
2010,07,16,02,57,11.70
2010,07,16,02,58,11.70
2010,07,16,02,59,11.70
2010,07,16,03,00,11.70
2010,07,16,03,01,11.70
2010,07,16,03,02,11.70
2010,07,16,03,03,11.70
2010,07,16,03,04,11.70
2010,07,16,03,05,11.60
2010,07,16,03,06,11.60
2010,07,16,03,07,11.60
2010,07,16,03,08,11.60
2010,07,16,03,09,11.60
2010,07,16,03,10,11.60
2010,07,16,03,11,11.60
2010,07,16,03,12,11.60
2010,07,16,03,13,11.60
2010,07,16,03,14,11.60
2010,07,16,03,15,11.60
2010,07,16,03,16,11.60
2010,07,16,03,17,11.60
2010,07,16,03,18,11.50
2010,07,16,03,19,11.40
2010,07,16,03,20,11.40
2010,07,16,03,21,11.40
2010,07,16,03,22,11.40
2010,07,16,03,23,11.40
2010,07,16,03,24,11.40
2010,07,16,03,25,11.40
2010,07,16,03,26,11.30
2010,07,16,03,27,11.30
2010,07,16,03,28,11.30
2010,07,16,03,29,11.30
2010,07,16,03,30,11.30
2010,07,16,03,31,11.30
2010,07,16,03,32,11.30
2010,07,16,03,33,11.20
2010,07,16,03,34,11.20
2010,07,16,03,35,11.20
2010,07,16,03,36,11.20
2010,07,16,03,37,11.20
2010,07,16,03,38,11.20
2010,07,16,03,39,11.20
2010,07,16,03,40,11.10
2010,07,16,03,41,11.10
2010,07,16,03,42,11.10
2010,07,16,03,43,11.10
2010,07,16,03,44,11.10
2010,07,16,03,45,11.10
2010,07,16,03,46,11.10
2010,07,16,03,47,11.10
2010,07,16,03,48,11.10
2010,07,16,03,49,11.10
2010,07,16,03,50,11.10
2010,07,16,03,51,11.10
2010,07,16,03,52,11.00
2010,07,16,03,53,10.90
2010,07,16,03,54,10.90
2010,07,16,03,55,10.90
2010,07,16,03,56,10.90
2010,07,16,03,57,10.90
2010,07,16,03,58,10.90
2010,07,16,03,59,10.90
2010,07,16,04,00,10.90
2010,07,16,04,01,10.90
2010,07,16,04,02,10.90
2010,07,16,04,03,10.90
2010,07,16,04,04,10.90
2010,07,16,04,05,10.90
2010,07,16,04,06,10.90
2010,07,16,04,07,10.90
2010,07,16,04,08,10.90
2010,07,16,04,09,10.90
2010,07,16,04,10,10.90
2010,07,16,04,11,10.90
2010,07,16,04,12,10.90
2010,07,16,04,13,10.90
2010,07,16,04,14,10.90
2010,07,16,04,15,10.90
2010,07,16,04,16,10.90
2010,07,16,04,17,10.90
2010,07,16,04,18,10.90
2010,07,16,04,19,10.90
2010,07,16,04,20,10.90
2010,07,16,04,21,10.90
2010,07,16,04,22,10.90
2010,07,16,04,23,10.90
2010,07,16,04,24,10.90
2010,07,16,04,25,10.90
2010,07,16,04,26,10.80
2010,07,16,04,27,10.80
2010,07,16,04,28,10.80
2010,07,16,04,29,10.80
2010,07,16,04,30,10.80
2010,07,16,04,31,10.80
2010,07,16,04,32,10.80
2010,07,16,04,33,10.80
2010,07,16,04,34,10.80
2010,07,16,04,35,10.70
2010,07,16,04,36,10.70
2010,07,16,04,37,10.70
2010,07,16,04,38,10.70
2010,07,16,04,39,10.80
2010,07,16,04,40,10.80
2010,07,16,04,41,10.80
2010,07,16,04,42,10.80
2010,07,16,04,43,10.80
2010,07,16,04,44,10.80
2010,07,16,04,45,10.80
2010,07,16,04,46,10.80
2010,07,16,04,47,10.80
2010,07,16,04,48,10.80
2010,07,16,04,49,10.80
2010,07,16,04,50,10.80
2010,07,16,04,51,10.80
2010,07,16,04,52,10.70
2010,07,16,04,53,10.70
2010,07,16,04,54,10.70
2010,07,16,04,55,10.70
2010,07,16,04,56,10.70
2010,07,16,04,57,10.70
2010,07,16,04,58,10.70
2010,07,16,04,59,10.70
2010,07,16,05,00,10.60
2010,07,16,05,01,10.60
2010,07,16,05,02,10.60
2010,07,16,05,03,10.60
2010,07,16,05,04,10.60
2010,07,16,05,05,10.60
2010,07,16,05,06,10.60
2010,07,16,05,07,10.70
2010,07,16,05,08,10.70
2010,07,16,05,09,10.70
2010,07,16,05,10,10.70
2010,07,16,05,11,10.60
2010,07,16,05,12,10.60
2010,07,16,05,13,10.60
2010,07,16,05,14,10.70
2010,07,16,05,15,10.70
2010,07,16,05,16,10.70
2010,07,16,05,17,10.60
2010,07,16,05,18,10.60
2010,07,16,05,19,10.60
2010,07,16,05,20,10.60
2010,07,16,05,21,10.60
2010,07,16,05,22,10.60
2010,07,16,05,23,10.60
2010,07,16,05,24,10.70
2010,07,16,05,25,10.70
2010,07,16,05,26,10.70
2010,07,16,05,27,10.70
2010,07,16,05,28,10.70
2010,07,16,05,29,10.60
2010,07,16,05,30,10.60
2010,07,16,05,31,10.60
2010,07,16,05,32,10.60
2010,07,16,05,33,10.60
2010,07,16,05,34,10.60
2010,07,16,05,35,10.50
2010,07,16,05,36,10.40
2010,07,16,05,37,10.40
2010,07,16,05,38,10.40
2010,07,16,05,39,10.40
2010,07,16,05,40,10.50
2010,07,16,05,41,10.60
2010,07,16,05,42,10.60
2010,07,16,05,43,10.60
2010,07,16,05,44,10.70
2010,07,16,05,45,10.70
2010,07,16,05,46,10.80
2010,07,16,05,47,10.80
2010,07,16,05,48,10.80
2010,07,16,05,49,10.70
2010,07,16,05,50,10.70
2010,07,16,05,51,10.70
2010,07,16,05,52,10.70
2010,07,16,05,53,10.70
2010,07,16,05,54,10.70
2010,07,16,05,55,10.70
2010,07,16,05,56,10.70
2010,07,16,05,57,10.70
2010,07,16,05,58,10.70
2010,07,16,05,59,10.70
2010,07,16,06,00,10.70
2010,07,16,06,01,10.70
2010,07,16,06,02,10.70
2010,07,16,06,03,10.60
2010,07,16,06,04,10.60
2010,07,16,06,05,10.60
2010,07,16,06,06,10.60
2010,07,16,06,07,10.60
2010,07,16,06,08,10.60
2010,07,16,06,09,10.70
2010,07,16,06,10,10.70
2010,07,16,06,11,10.70
2010,07,16,06,12,10.60
2010,07,16,06,13,10.60
2010,07,16,06,14,10.60
2010,07,16,06,15,10.60
2010,07,16,06,16,10.60
2010,07,16,06,17,10.60
2010,07,16,06,18,10.70
2010,07,16,06,19,10.70
2010,07,16,06,20,10.70
2010,07,16,06,21,10.70
2010,07,16,06,22,10.80
2010,07,16,06,23,10.80
2010,07,16,06,24,10.80
2010,07,16,06,25,10.80
2010,07,16,06,26,10.90
2010,07,16,06,27,10.90
2010,07,16,06,28,10.90
2010,07,16,06,29,10.90
2010,07,16,06,30,10.90
2010,07,16,06,31,10.90
2010,07,16,06,32,11.00
2010,07,16,06,33,11.10
2010,07,16,06,34,11.10
2010,07,16,06,35,11.10
2010,07,16,06,36,11.20
2010,07,16,06,37,11.20
2010,07,16,06,38,11.30
2010,07,16,06,39,11.30
2010,07,16,06,40,11.40
2010,07,16,06,41,11.40
2010,07,16,06,42,11.40
2010,07,16,06,43,11.40
2010,07,16,06,44,11.60
2010,07,16,06,45,11.60
2010,07,16,06,46,11.60
2010,07,16,06,47,11.60
2010,07,16,06,48,11.70
2010,07,16,06,49,11.70
2010,07,16,06,50,11.80
2010,07,16,06,51,11.80
2010,07,16,06,52,11.90
2010,07,16,06,53,11.90
2010,07,16,06,54,12.00
2010,07,16,06,55,12.00
2010,07,16,06,56,12.10
2010,07,16,06,57,12.10
2010,07,16,06,58,12.10
2010,07,16,06,59,12.20
2010,07,16,07,00,12.20
2010,07,16,07,01,12.30
2010,07,16,07,02,12.30
2010,07,16,07,03,12.30
2010,07,16,07,04,12.40
2010,07,16,07,05,12.50
2010,07,16,07,06,12.50
2010,07,16,07,07,12.50
2010,07,16,07,08,12.60
2010,07,16,07,09,12.60
2010,07,16,07,10,12.70
2010,07,16,07,11,12.70
2010,07,16,07,12,12.80
2010,07,16,07,13,12.80
2010,07,16,07,14,12.80
2010,07,16,07,15,12.90
2010,07,16,07,16,12.90
2010,07,16,07,17,13.00
2010,07,16,07,18,13.00
2010,07,16,07,19,13.10
2010,07,16,07,20,13.10
2010,07,16,07,21,13.20
2010,07,16,07,22,13.20
2010,07,16,07,23,13.30
2010,07,16,07,24,13.30
2010,07,16,07,25,13.30
2010,07,16,07,26,13.40
2010,07,16,07,27,13.40
2010,07,16,07,28,13.50
2010,07,16,07,29,13.60
2010,07,16,07,30,13.60
2010,07,16,07,31,13.70
2010,07,16,07,32,13.70
2010,07,16,07,33,13.70
2010,07,16,07,34,13.70
2010,07,16,07,35,13.70
2010,07,16,07,36,13.80
2010,07,16,07,37,13.80
2010,07,16,07,38,13.90
2010,07,16,07,39,13.90
2010,07,16,07,40,14.00
2010,07,16,07,41,14.00
2010,07,16,07,42,14.10
2010,07,16,07,43,14.10
2010,07,16,07,44,14.20
2010,07,16,07,45,14.20
2010,07,16,07,46,14.30
2010,07,16,07,47,14.30
2010,07,16,07,48,14.30
2010,07,16,07,49,14.30
2010,07,16,07,50,14.40
2010,07,16,07,51,14.40
2010,07,16,07,52,14.40
2010,07,16,07,53,14.50
2010,07,16,07,54,14.50
2010,07,16,07,55,14.60
2010,07,16,07,56,14.60
2010,07,16,07,57,14.70
2010,07,16,07,58,14.80
2010,07,16,07,59,14.80
2010,07,16,08,00,14.80
2010,07,16,08,01,14.80
2010,07,16,08,02,14.80
2010,07,16,08,03,14.90
2010,07,16,08,04,15.00
2010,07,16,08,05,15.00
2010,07,16,08,06,15.10
2010,07,16,08,07,15.20
2010,07,16,08,08,15.20
2010,07,16,08,09,15.30
2010,07,16,08,10,15.30
2010,07,16,08,11,15.30
2010,07,16,08,12,15.30
2010,07,16,08,13,15.30
2010,07,16,08,14,15.40
2010,07,16,08,15,15.40
2010,07,16,08,16,15.40
2010,07,16,08,17,15.40
2010,07,16,08,18,15.50
2010,07,16,08,19,15.50
2010,07,16,08,20,15.60
2010,07,16,08,21,15.60
2010,07,16,08,22,15.70
2010,07,16,08,23,15.60
2010,07,16,08,24,15.70
2010,07,16,08,25,15.70
2010,07,16,08,26,15.70
2010,07,16,08,27,15.80
2010,07,16,08,28,15.80
2010,07,16,08,29,15.80
2010,07,16,08,30,15.90
2010,07,16,08,31,16.00
2010,07,16,08,32,16.10
2010,07,16,08,33,16.10
2010,07,16,08,34,16.10
2010,07,16,08,35,16.20
2010,07,16,08,36,16.20
2010,07,16,08,37,16.20
2010,07,16,08,38,16.30
2010,07,16,08,39,16.30
2010,07,16,08,40,16.40
2010,07,16,08,41,16.40
2010,07,16,08,42,16.50
2010,07,16,08,43,16.60
2010,07,16,08,44,16.60
2010,07,16,08,45,16.70
2010,07,16,08,46,16.70
2010,07,16,08,47,16.70
2010,07,16,08,48,16.70
2010,07,16,08,49,16.70
2010,07,16,08,50,16.70
2010,07,16,08,51,16.70
2010,07,16,08,52,16.70
2010,07,16,08,53,16.70
2010,07,16,08,54,16.80
2010,07,16,08,55,16.80
2010,07,16,08,56,16.90
2010,07,16,08,57,17.00
2010,07,16,08,58,17.00
2010,07,16,08,59,17.10
2010,07,16,09,00,17.10
2010,07,16,09,01,17.20
2010,07,16,09,02,17.10
2010,07,16,09,03,17.10
2010,07,16,09,04,17.00
2010,07,16,09,05,17.00
2010,07,16,09,06,17.00
2010,07,16,09,07,17.00
2010,07,16,09,08,17.10
2010,07,16,09,09,17.20
2010,07,16,09,10,17.30
2010,07,16,09,11,17.20
2010,07,16,09,12,17.00
2010,07,16,09,13,17.00
2010,07,16,09,14,16.90
2010,07,16,09,15,16.90
2010,07,16,09,16,16.90
2010,07,16,09,17,16.80
2010,07,16,09,18,16.80
2010,07,16,09,19,16.90
2010,07,16,09,20,16.80
2010,07,16,09,21,16.70
2010,07,16,09,22,16.70
2010,07,16,09,23,16.80
2010,07,16,09,24,16.80
2010,07,16,09,25,16.80
2010,07,16,09,26,16.70
2010,07,16,09,27,16.70
2010,07,16,09,28,16.70
2010,07,16,09,29,16.70
2010,07,16,09,30,16.70
2010,07,16,09,31,16.70
2010,07,16,09,32,16.70
2010,07,16,09,33,16.70
2010,07,16,09,34,16.70
2010,07,16,09,35,16.70
2010,07,16,09,36,16.70
2010,07,16,09,37,16.60
2010,07,16,09,38,16.60
2010,07,16,09,39,16.70
2010,07,16,09,40,16.70
2010,07,16,09,41,16.50
2010,07,16,09,42,16.30
2010,07,16,09,43,16.30
2010,07,16,09,44,16.30
2010,07,16,09,45,16.30
2010,07,16,09,46,16.40
2010,07,16,09,47,16.20
2010,07,16,09,48,16.20
2010,07,16,09,49,16.20
2010,07,16,09,50,16.20
2010,07,16,09,51,16.20
2010,07,16,09,52,16.20
2010,07,16,09,53,16.20
2010,07,16,09,54,16.30
2010,07,16,09,55,16.40
2010,07,16,09,56,16.50
2010,07,16,09,57,16.60
2010,07,16,09,58,16.70
2010,07,16,09,59,16.70
2010,07,16,10,00,16.80
2010,07,16,10,01,16.90
2010,07,16,10,02,17.00
2010,07,16,10,03,17.20
2010,07,16,10,04,17.20
2010,07,16,10,05,17.10
2010,07,16,10,06,17.10
2010,07,16,10,07,17.20
2010,07,16,10,08,17.20
2010,07,16,10,09,17.30
2010,07,16,10,10,17.30
2010,07,16,10,11,17.30
2010,07,16,10,12,17.30
2010,07,16,10,13,17.30
2010,07,16,10,14,17.30
2010,07,16,10,15,17.30
2010,07,16,10,16,17.30
2010,07,16,10,17,17.40
2010,07,16,10,18,17.60
2010,07,16,10,19,17.70
2010,07,16,10,20,17.90
2010,07,16,10,21,17.90
2010,07,16,10,22,17.90
2010,07,16,10,23,17.80
2010,07,16,10,24,17.70
2010,07,16,10,25,17.60
2010,07,16,10,26,17.50
2010,07,16,10,27,17.40
2010,07,16,10,28,17.30
2010,07,16,10,29,17.30
2010,07,16,10,30,17.30
2010,07,16,10,31,17.30
2010,07,16,10,32,17.40
2010,07,16,10,33,17.50
2010,07,16,10,34,17.60
2010,07,16,10,35,17.70
2010,07,16,10,36,17.80
2010,07,16,10,37,17.90
2010,07,16,10,38,17.90
2010,07,16,10,39,17.90
2010,07,16,10,40,17.90
2010,07,16,10,41,17.90
2010,07,16,10,42,17.90
2010,07,16,10,43,17.90
2010,07,16,10,44,17.90
2010,07,16,10,45,17.90
2010,07,16,10,46,17.90
2010,07,16,10,47,17.80
2010,07,16,10,48,17.80
2010,07,16,10,49,17.70
2010,07,16,10,50,17.80
2010,07,16,10,51,17.80
2010,07,16,10,52,17.80
2010,07,16,10,53,17.80
2010,07,16,10,54,17.90
2010,07,16,10,55,17.80
2010,07,16,10,56,17.80
2010,07,16,10,57,17.70
2010,07,16,10,58,17.50
2010,07,16,10,59,17.40
2010,07,16,11,00,17.50
2010,07,16,11,01,17.40
2010,07,16,11,02,17.40
2010,07,16,11,03,17.50
2010,07,16,11,04,17.70
2010,07,16,11,05,17.70
2010,07,16,11,06,17.80
2010,07,16,11,07,17.70
2010,07,16,11,08,17.70
2010,07,16,11,09,17.70
2010,07,16,11,10,17.60
2010,07,16,11,11,17.60
2010,07,16,11,12,17.60
2010,07,16,11,13,17.50
2010,07,16,11,14,17.40
2010,07,16,11,15,17.30
2010,07,16,11,16,17.30
2010,07,16,11,17,17.30
2010,07,16,11,18,17.30
2010,07,16,11,19,17.30
2010,07,16,11,20,17.30
2010,07,16,11,21,17.30
2010,07,16,11,22,17.20
2010,07,16,11,23,17.20
2010,07,16,11,24,17.20
2010,07,16,11,25,17.20
2010,07,16,11,26,17.20
2010,07,16,11,27,17.20
2010,07,16,11,28,17.20
2010,07,16,11,29,17.20
2010,07,16,11,30,17.20
2010,07,16,11,31,17.20
2010,07,16,11,32,17.20
2010,07,16,11,33,17.20
2010,07,16,11,34,17.30
2010,07,16,11,35,17.30
2010,07,16,11,36,17.30
2010,07,16,11,37,17.50
2010,07,16,11,38,17.50
2010,07,16,11,39,17.70
2010,07,16,11,40,17.60
2010,07,16,11,41,17.50
2010,07,16,11,42,17.50
2010,07,16,11,43,17.30
2010,07,16,11,44,17.30
2010,07,16,11,45,17.30
2010,07,16,11,46,17.30
2010,07,16,11,47,17.30
2010,07,16,11,48,17.10
2010,07,16,11,49,17.00
2010,07,16,11,50,16.90
2010,07,16,11,51,16.80
2010,07,16,11,52,16.70
2010,07,16,11,53,16.70
2010,07,16,11,54,16.70
2010,07,16,11,55,16.70
2010,07,16,11,56,16.70
2010,07,16,11,57,16.70
2010,07,16,11,58,16.70
2010,07,16,11,59,16.70
2010,07,16,12,00,16.70
2010,07,16,12,01,16.70
2010,07,16,12,02,16.70
2010,07,16,12,03,16.80
2010,07,16,12,04,16.90
2010,07,16,12,05,16.90
2010,07,16,12,06,17.10
2010,07,16,12,07,17.20
2010,07,16,12,08,17.20
2010,07,16,12,09,17.10
2010,07,16,12,10,17.10
2010,07,16,12,11,17.10
2010,07,16,12,12,17.20
2010,07,16,12,13,17.20
2010,07,16,12,14,17.20
2010,07,16,12,15,17.20
2010,07,16,12,16,17.10
2010,07,16,12,17,17.00
2010,07,16,12,18,17.00
2010,07,16,12,19,16.90
2010,07,16,12,20,16.80
2010,07,16,12,21,16.70
2010,07,16,12,22,16.70
2010,07,16,12,23,16.70
2010,07,16,12,24,16.70
2010,07,16,12,25,16.70
2010,07,16,12,26,16.60
2010,07,16,12,27,16.50
2010,07,16,12,28,16.30
2010,07,16,12,29,16.30
2010,07,16,12,30,16.30
2010,07,16,12,31,16.30
2010,07,16,12,32,16.20
2010,07,16,12,33,16.20
2010,07,16,12,34,16.30
2010,07,16,12,35,16.40
2010,07,16,12,36,16.60
2010,07,16,12,37,16.80
2010,07,16,12,38,16.90
2010,07,16,12,39,17.00
2010,07,16,12,40,17.10
2010,07,16,12,41,17.00
2010,07,16,12,42,16.90
2010,07,16,12,43,16.90
2010,07,16,12,44,16.80
2010,07,16,12,45,16.80
2010,07,16,12,46,16.80
2010,07,16,12,47,16.70
2010,07,16,12,48,16.80
2010,07,16,12,49,16.80
2010,07,16,12,50,16.80
2010,07,16,12,51,16.70
2010,07,16,12,52,16.70
2010,07,16,12,53,16.70
2010,07,16,12,54,16.70
2010,07,16,12,55,16.70
2010,07,16,12,56,16.70
2010,07,16,12,57,16.70
2010,07,16,12,58,16.80
2010,07,16,12,59,16.90
2010,07,16,13,00,17.10
2010,07,16,13,01,17.10
2010,07,16,13,02,17.10
2010,07,16,13,03,17.10
2010,07,16,13,04,17.00
2010,07,16,13,05,16.90
2010,07,16,13,06,16.80
2010,07,16,13,07,16.80
2010,07,16,13,08,16.90
2010,07,16,13,09,16.90
2010,07,16,13,10,16.90
2010,07,16,13,11,17.00
2010,07,16,13,12,17.00
2010,07,16,13,13,17.10
2010,07,16,13,14,17.10
2010,07,16,13,15,17.10
2010,07,16,13,16,17.10
2010,07,16,13,17,17.10
2010,07,16,13,18,17.20
2010,07,16,13,19,17.30
2010,07,16,13,20,17.30
2010,07,16,13,21,17.30
2010,07,16,13,22,17.20
2010,07,16,13,23,17.10
2010,07,16,13,24,16.90
2010,07,16,13,25,16.70
2010,07,16,13,26,16.60
2010,07,16,13,27,16.60
2010,07,16,13,28,16.60
2010,07,16,13,29,16.60
2010,07,16,13,30,16.60
2010,07,16,13,31,16.60
2010,07,16,13,32,16.60
2010,07,16,13,33,16.50
2010,07,16,13,34,16.40
2010,07,16,13,35,16.40
2010,07,16,13,36,16.40
2010,07,16,13,37,16.60
2010,07,16,13,38,16.70
2010,07,16,13,39,16.90
2010,07,16,13,40,17.00
2010,07,16,13,41,17.00
2010,07,16,13,42,16.90
2010,07,16,13,43,16.90
2010,07,16,13,44,17.00
2010,07,16,13,45,17.20
2010,07,16,13,46,17.30
2010,07,16,13,47,17.20
2010,07,16,13,48,17.20
2010,07,16,13,49,17.00
2010,07,16,13,50,17.00
2010,07,16,13,51,17.00
2010,07,16,13,52,17.00
2010,07,16,13,53,17.00
2010,07,16,13,54,17.10
2010,07,16,13,55,17.00
2010,07,16,13,56,17.00
2010,07,16,13,57,16.90
2010,07,16,13,58,16.90
2010,07,16,13,59,16.80
2010,07,16,14,00,16.80
2010,07,16,14,01,16.80
2010,07,16,14,02,16.80
2010,07,16,14,03,16.90
2010,07,16,14,04,16.90
2010,07,16,14,05,17.00
2010,07,16,14,06,17.00
2010,07,16,14,07,16.90
2010,07,16,14,08,16.90
2010,07,16,14,09,16.80
2010,07,16,14,10,16.80
2010,07,16,14,11,16.80
2010,07,16,14,12,16.80
2010,07,16,14,13,16.80
2010,07,16,14,14,16.70
2010,07,16,14,15,16.60
2010,07,16,14,16,16.40
2010,07,16,14,17,16.50
2010,07,16,14,18,16.60
2010,07,16,14,19,16.70
2010,07,16,14,20,16.70
2010,07,16,14,21,16.70
2010,07,16,14,22,16.70
2010,07,16,14,23,16.70
2010,07,16,14,24,16.60
2010,07,16,14,25,16.70
2010,07,16,14,26,16.70
2010,07,16,14,27,16.70
2010,07,16,14,28,16.80
2010,07,16,14,29,16.90
2010,07,16,14,30,17.00
2010,07,16,14,31,17.00
2010,07,16,14,32,17.00
2010,07,16,14,33,16.90
2010,07,16,14,34,16.90
2010,07,16,14,35,16.90
2010,07,16,14,36,16.90
2010,07,16,14,37,17.00
2010,07,16,14,38,17.00
2010,07,16,14,39,17.00
2010,07,16,14,40,17.10
2010,07,16,14,41,17.20
2010,07,16,14,42,17.20
2010,07,16,14,43,17.30
2010,07,16,14,44,17.30
2010,07,16,14,45,17.40
2010,07,16,14,46,17.30
2010,07,16,14,47,17.30
2010,07,16,14,48,17.20
2010,07,16,14,49,17.20
2010,07,16,14,50,17.20
2010,07,16,14,51,17.00
2010,07,16,14,52,16.90
2010,07,16,14,53,16.90
2010,07,16,14,54,16.90
2010,07,16,14,55,17.00
2010,07,16,14,56,17.00
2010,07,16,14,57,17.10
2010,07,16,14,58,17.00
2010,07,16,14,59,16.90
2010,07,16,15,00,16.90
2010,07,16,15,01,16.90
2010,07,16,15,02,17.00
2010,07,16,15,03,17.10
2010,07,16,15,04,17.30
2010,07,16,15,05,17.30
2010,07,16,15,06,17.30
2010,07,16,15,07,17.40
2010,07,16,15,08,17.40
2010,07,16,15,09,17.40
2010,07,16,15,10,17.40
2010,07,16,15,11,17.30
2010,07,16,15,12,17.30
2010,07,16,15,13,17.40
2010,07,16,15,14,17.40
2010,07,16,15,15,17.50
2010,07,16,15,16,17.60
2010,07,16,15,17,17.70
2010,07,16,15,18,17.70
2010,07,16,15,19,17.70
2010,07,16,15,20,17.70
2010,07,16,15,21,17.70
2010,07,16,15,22,17.60
2010,07,16,15,23,17.60
2010,07,16,15,24,17.60
2010,07,16,15,25,17.70
2010,07,16,15,26,17.70
2010,07,16,15,27,17.60
2010,07,16,15,28,17.60
2010,07,16,15,29,17.70
2010,07,16,15,30,17.50
2010,07,16,15,31,17.50
2010,07,16,15,32,17.50
2010,07,16,15,33,17.50
2010,07,16,15,34,17.50
2010,07,16,15,35,17.50
2010,07,16,15,36,17.50
2010,07,16,15,37,17.50
2010,07,16,15,38,17.60
2010,07,16,15,39,17.60
2010,07,16,15,40,17.60
2010,07,16,15,41,17.60
2010,07,16,15,42,17.60
2010,07,16,15,43,17.70
2010,07,16,15,44,17.70
2010,07,16,15,45,17.70
2010,07,16,15,46,17.60
2010,07,16,15,47,17.70
2010,07,16,15,48,17.60
2010,07,16,15,49,17.60
2010,07,16,15,50,17.50
2010,07,16,15,51,17.60
2010,07,16,15,52,17.70
2010,07,16,15,53,17.70
2010,07,16,15,54,17.70
2010,07,16,15,55,17.60
2010,07,16,15,56,17.60
2010,07,16,15,57,17.60
2010,07,16,15,58,17.60
2010,07,16,15,59,17.60
2010,07,16,16,00,17.50
2010,07,16,16,01,17.50
2010,07,16,16,02,17.60
2010,07,16,16,03,17.70
2010,07,16,16,04,17.90
2010,07,16,16,05,17.90
2010,07,16,16,06,18.00
2010,07,16,16,07,18.10
2010,07,16,16,08,18.20
2010,07,16,16,09,18.30
2010,07,16,16,10,18.40
2010,07,16,16,11,18.50
2010,07,16,16,12,18.60
2010,07,16,16,13,18.60
2010,07,16,16,14,18.50
2010,07,16,16,15,18.40
2010,07,16,16,16,18.30
2010,07,16,16,17,18.20
2010,07,16,16,18,18.20
2010,07,16,16,19,18.20
2010,07,16,16,20,18.20
2010,07,16,16,21,18.30
2010,07,16,16,22,18.40
2010,07,16,16,23,18.40
2010,07,16,16,24,18.50
2010,07,16,16,25,18.60
2010,07,16,16,26,18.80
2010,07,16,16,27,18.80
2010,07,16,16,28,18.90
2010,07,16,16,29,18.90
2010,07,16,16,30,18.90
2010,07,16,16,31,18.90
2010,07,16,16,32,18.90
2010,07,16,16,33,18.90
2010,07,16,16,34,18.90
2010,07,16,16,35,18.90
2010,07,16,16,36,18.90
2010,07,16,16,37,18.90
2010,07,16,16,38,18.90
2010,07,16,16,39,18.80
2010,07,16,16,40,18.70
2010,07,16,16,41,18.60
2010,07,16,16,42,18.60
2010,07,16,16,43,18.60
2010,07,16,16,44,18.60
2010,07,16,16,45,18.60
2010,07,16,16,46,18.60
2010,07,16,16,47,18.60
2010,07,16,16,48,18.60
2010,07,16,16,49,18.60
2010,07,16,16,50,18.50
2010,07,16,16,51,18.50
2010,07,16,16,52,18.40
2010,07,16,16,53,18.20
2010,07,16,16,54,18.20
2010,07,16,16,55,18.20
2010,07,16,16,56,18.20
2010,07,16,16,57,18.20
2010,07,16,16,58,18.20
2010,07,16,16,59,18.20
2010,07,16,17,00,18.20
2010,07,16,17,01,18.30
2010,07,16,17,02,18.30
2010,07,16,17,03,18.40
2010,07,16,17,04,18.40
2010,07,16,17,05,18.40
2010,07,16,17,06,18.40
2010,07,16,17,07,18.20
2010,07,16,17,08,18.10
2010,07,16,17,09,18.10
2010,07,16,17,10,18.10
2010,07,16,17,11,18.10
2010,07,16,17,12,18.10
2010,07,16,17,13,18.00
2010,07,16,17,14,17.90
2010,07,16,17,15,18.00
2010,07,16,17,16,18.10
2010,07,16,17,17,18.10
2010,07,16,17,18,18.10
2010,07,16,17,19,18.10